sat.trackr.live / text

‹ back to catalog

STARLINK-30334

NORAD 57719 · 2023-129X

PAYLOAD ACTIVE UNKNOWN

§ Identity

Operator
Country
US
Launch date
2023-08-27
Launch site
AFETR
Launch vehicle
Mass (kg)
RCS (m²)

Purposes: comms

External: N2YO · Heavens-Above · Gunter

§ Orbital elements

Epoch: 2026-09-20T22:59:35.833632Z

Period
94.27 min
Inclination
43.0018°
Eccentricity
0.0001122
Mean motion
15.27580562 rev/d
Perigee alt
482.3 km
Apogee alt
483.8 km
Semi-major
6,861.2 km
B*
3.5913e-5
RAAN
95.3603°
Arg perigee
270.3232°
Mean anomaly
89.7491°
Rev number
17,039

§ Raw data

STARLINK-303341 57719U 23129X   26263.95805363  .00000726  00000+0  35913-4 0  99932 57719  43.0018  95.3603 0001122 270.3232  89.7491 15.27580562170397

JSON: /api/v1/satellites/57719 · /tle

For live sub-satellite position, see the globe view (requires WebGL).

§ Visibility from observer

Set your observer location to see the next 7 days of passes ≥ 10°. The values pass through the URL so the page stays shareable.

No JS? Fill the form by hand. The geolocation button needs JavaScript.